Weather History for Mineral Point, WI

Change the Weather History Date:

Wednesday, April 10, 2013

  Actual Average (KLNR) Record (KLNR)
Temperature  
Mean Temperature 35 °F -  
Max Temperature 37 °F 53 °F 82 °F (2011)
Min Temperature 33 °F 33 °F 19 °F (2007)
Degree Days  
Heating Degree Days 30    
Moisture  
Dew Point 33 °F    
Average Humidity 92    
Maximum Humidity 93    
Minimum Humidity 87    
Precipitation  
Precipitation 0.61 in - - ()
Sea Level Pressure  
Sea Level Pressure 29.92 in    
Wind  
Wind Speed 16 mph (NE)    
Max Wind Speed 24 mph    
Max Gust Speed 31 mph    
Visibility 8 miles    
Events Rain , Snow    
Averages and records for this station are not official NWS values.
T = Trace of Precipitation, MM = Missing Value Source: NWS Daily Summary

Daily Weather History Graph

Daily Weather History Graph

Search for Another Location

Airport:

Trip Planner

Search our weather history database for the weather conditions in past years. The results will help you decide how hot, cold, wet, or windy it might be!

Date:

Astronomy

Apr. 10, 2013 Rise Set
Actual Time 6:27 AM CDT 7:37 PM CDT
Civil Twilight 5:58 AM CDT 8:07 PM CDT
Nautical Twilight 5:23 AM CDT 8:42 PM CDT
Astronomical Twilight 4:46 AM CDT 9:18 PM CDT
Moon 6:22 AM CDT (4/10) 8:15 PM CDT (4/10)
Length of Visible Light 14h 09m
Length of Day
13h 10m
New Moon, 0% of the Moon is Illuminated
Apr 10
New Moon
Apr 18
First Quarter
Apr 25
Full
May 2
Last Quarter
May 9
New

Hourly Weather History & Observations

Time (CDT) Temp. Windchill Dew Point Humidity Pressure Visibility Wind Dir Wind Speed Gust Speed Precip Events Conditions
12:15 AM 37.4 °F 27.8 °F 35.6 °F 93% 29.96 in 7.0 mi NE 17.3 mph 24.2 mph 0.01 in Rain Light Rain
12:35 AM 37.4 °F 28.9 °F 35.6 °F 93% 29.96 in 10.0 mi NNE 13.8 mph 18.4 mph 0.01 in Rain Light Rain
12:55 AM 37.4 °F 28.2 °F 33.8 °F 87% 29.95 in 7.0 mi NE 16.1 mph 21.9 mph 0.03 in Rain Light Rain
1:15 AM 35.6 °F 26.6 °F 33.8 °F 93% 29.96 in 10.0 mi NE 13.8 mph 20.7 mph N/A Rain Light Rain
1:55 AM 33.8 °F 22.5 °F 32.0 °F 93% 29.92 in 10.0 mi NE 19.6 mph 27.6 mph 0.02 in   Overcast
2:15 AM 33.8 °F 22.8 °F 32.0 °F 93% 29.91 in 10.0 mi NE 18.4 mph 27.6 mph N/A   Overcast
2:35 AM 33.8 °F 21.9 °F 32.0 °F 93% 29.89 in 10.0 mi ENE 21.9 mph 31.1 mph N/A   Overcast
2:55 AM 33.8 °F 22.8 °F 32.0 °F 93% 29.89 in 10.0 mi ENE 18.4 mph 25.3 mph N/A   Overcast
3:15 AM 33.8 °F 23.5 °F 32.0 °F 93% 30.04 in 7.0 mi NNW 16.1 mph 29.9 mph N/A   Overcast
3:35 AM 33.8 °F 24.3 °F 32.0 °F 93% 30.01 in 3.0 mi North 13.8 mph 25.3 mph 0.02 in Snow Light Snow
3:55 AM 33.8 °F 23.2 °F 32.0 °F 93% 29.95 in 3.0 mi ENE 17.3 mph 21.9 mph 0.13 in Snow Light Snow
4:15 AM 33.8 °F 23.2 °F 32.0 °F 93% 29.92 in 4.0 mi East 17.3 mph 23.0 mph 0.06 in   Overcast
4:35 AM 33.8 °F 21.9 °F 32.0 °F 93% 29.88 in 5.0 mi East 21.9 mph 26.5 mph 0.10 in Snow Light Snow
4:55 AM 33.8 °F 26.4 °F 32.0 °F 93% 29.94 in 5.0 mi ENE 9.2 mph 18.4 mph 0.13 in   Overcast
5:15 AM 33.8 °F 23.5 °F 32.0 °F 93% 29.92 in 3.0 mi ENE 16.1 mph - 0.08 in Snow Light Snow
5:35 AM 33.8 °F 22.5 °F 32.0 °F 93% 29.88 in 2.5 mi ENE 19.6 mph 27.6 mph 0.17 in Snow Light Snow
5:55 AM 33.8 °F 22.5 °F 32.0 °F 93% 29.91 in 7.0 mi North 19.6 mph - 0.20 in Snow Light Snow
6:15 AM 33.8 °F 24.3 °F 32.0 °F 93% 29.93 in 10.0 mi North 13.8 mph 26.5 mph N/A   Overcast
6:35 AM 33.8 °F 24.8 °F 32.0 °F 93% 29.99 in 10.0 mi NE 12.7 mph 16.1 mph N/A   Overcast
6:55 AM 33.8 °F 23.9 °F 32.0 °F 93% 29.96 in 10.0 mi NE 15.0 mph 21.9 mph N/A   Overcast
7:15 AM 33.8 °F 21.6 °F 32.0 °F 93% 29.87 in 10.0 mi ENE 23.0 mph 31.1 mph N/A   Overcast
7:35 AM 33.8 °F 23.2 °F 32.0 °F 93% 29.88 in 10.0 mi ENE 17.3 mph 23.0 mph N/A   Overcast
7:55 AM 33.8 °F 22.2 °F 32.0 °F 93% 29.87 in 10.0 mi ENE 20.7 mph 28.8 mph N/A   Overcast
8:15 AM 35.6 °F 25.5 °F 32.0 °F 87% 29.88 in 10.0 mi ENE 17.3 mph 26.5 mph N/A   Overcast
8:35 AM 35.6 °F 26.2 °F 32.0 °F 87% 29.91 in 10.0 mi NE 15.0 mph 23.0 mph N/A   Overcast
8:55 AM 35.6 °F 28.0 °F 32.0 °F 87% 29.94 in 10.0 mi NE 10.4 mph 17.3 mph N/A   Overcast
9:15 AM 35.6 °F 27.1 °F 32.0 °F 87% 29.94 in 10.0 mi NE 12.7 mph - N/A   Overcast
9:35 AM 35.6 °F 28.0 °F 32.0 °F 87% 29.98 in 10.0 mi NE 10.4 mph 16.1 mph N/A   Overcast
9:55 AM 35.6 °F 30.7 °F 32.0 °F 87% 30.02 in 10.0 mi East 5.8 mph - N/A   Overcast
10:15 AM 35.6 °F 28.6 °F 32.0 °F 87% 30.00 in 10.0 mi ENE 9.2 mph - N/A   Overcast
10:35 AM 35.6 °F 26.6 °F 32.0 °F 87% 29.97 in 7.0 mi NE 13.8 mph - N/A   Overcast
10:55 AM 35.6 °F 25.5 °F 33.8 °F 93% 29.93 in 4.0 mi NE 17.3 mph 23.0 mph N/A   Overcast
11:15 AM 35.6 °F 23.7 °F 33.8 °F 93% 29.89 in 7.0 mi NE 24.2 mph 31.1 mph N/A   Overcast
11:35 AM 35.6 °F 24.8 °F 33.8 °F 93% 29.90 in 10.0 mi NE 19.6 mph 23.0 mph N/A   Overcast
12:15 PM 35.6 °F 25.9 °F 33.8 °F 93% 29.94 in 10.0 mi NE 16.1 mph - N/A   Overcast
12:35 PM 35.6 °F 27.5 °F 33.8 °F 93% 29.98 in 10.0 mi NE 11.5 mph 18.4 mph N/A   Overcast
12:55 PM 35.6 °F 26.2 °F 33.8 °F 93% 29.97 in 10.0 mi NE 15.0 mph 19.6 mph N/A   Overcast
1:15 PM 35.6 °F 27.5 °F 32.0 °F 87% 29.97 in 10.0 mi NE 11.5 mph - N/A   Light Drizzle
1:35 PM 35.6 °F 27.5 °F 33.8 °F 93% 29.98 in 10.0 mi ENE 11.5 mph - N/A Rain Light Rain
1:55 PM 35.6 °F 27.5 °F 33.8 °F 93% 30.00 in 4.0 mi East 11.5 mph 21.9 mph 0.01 in Rain Rain
2:15 PM 35.6 °F 26.6 °F 33.8 °F 93% 29.99 in 5.0 mi ENE 13.8 mph 17.3 mph 0.02 in Rain Light Rain
2:35 PM 35.6 °F 27.1 °F 33.8 °F 93% 30.00 in 7.0 mi ENE 12.7 mph - 0.03 in Rain Light Rain
2:55 PM 35.6 °F 26.6 °F 33.8 °F 93% 29.98 in 10.0 mi NE 13.8 mph 20.7 mph 0.03 in Rain Light Rain
3:15 PM 35.6 °F 26.2 °F 33.8 °F 93% 29.96 in 10.0 mi NNE 15.0 mph 23.0 mph 0.01 in Rain Light Rain
3:35 PM 35.6 °F 26.2 °F 33.8 °F 93% 29.94 in 7.0 mi NE 15.0 mph 19.6 mph 0.01 in Rain Light Rain
3:55 PM 35.6 °F 25.5 °F 33.8 °F 93% 29.91 in 10.0 mi NE 17.3 mph 26.5 mph 0.01 in Rain Light Rain
4:15 PM 35.6 °F 25.5 °F 33.8 °F 93% 29.89 in 10.0 mi ENE 17.3 mph 25.3 mph N/A   Overcast
4:35 PM 35.6 °F 25.2 °F 33.8 °F 93% 29.87 in 10.0 mi ENE 18.4 mph 26.5 mph N/A   Overcast
4:55 PM 35.6 °F 24.5 °F 33.8 °F 93% 29.88 in 10.0 mi NE 20.7 mph 27.6 mph N/A   Overcast
5:15 PM 35.6 °F 25.5 °F 33.8 °F 93% 29.86 in 10.0 mi ENE 17.3 mph 23.0 mph N/A   Overcast
5:35 PM 35.6 °F 24.8 °F 33.8 °F 93% 29.86 in 10.0 mi ENE 19.6 mph 26.5 mph N/A Rain Light Rain
5:55 PM 35.6 °F 25.9 °F 33.8 °F 93% 29.86 in 10.0 mi ENE 16.1 mph 31.1 mph N/A   Overcast
6:15 PM 37.4 °F 29.8 °F 33.8 °F 87% 29.90 in 10.0 mi ENE 11.5 mph 23.0 mph N/A   Overcast
6:35 PM 37.4 °F 27.8 °F 33.8 °F 87% 29.88 in 10.0 mi ENE 17.3 mph 23.0 mph N/A   Overcast
6:55 PM 37.4 °F 28.5 °F 33.8 °F 87% 29.89 in 10.0 mi NE 15.0 mph 20.7 mph N/A   Overcast
7:15 PM 35.6 °F 25.2 °F 33.8 °F 93% 29.88 in 10.0 mi NE 18.4 mph - N/A   Overcast
7:35 PM 35.6 °F 25.2 °F 33.8 °F 93% 29.87 in 7.0 mi NE 18.4 mph 26.5 mph N/A   Overcast
7:55 PM 35.6 °F 25.5 °F 33.8 °F 93% 29.89 in 10.0 mi ENE 17.3 mph 24.2 mph N/A   Overcast
8:15 PM 35.6 °F 26.6 °F 33.8 °F 93% 29.90 in 10.0 mi ENE 13.8 mph 19.6 mph N/A   Overcast
8:35 PM 35.6 °F 25.5 °F 33.8 °F 93% 29.90 in 7.0 mi NE 17.3 mph 25.3 mph N/A   Overcast
8:55 PM 35.6 °F 26.2 °F 33.8 °F 93% 29.92 in 10.0 mi ENE 15.0 mph 21.9 mph N/A   Overcast
9:15 PM 35.6 °F 26.2 °F 33.8 °F 93% 29.90 in 7.0 mi ENE 15.0 mph 18.4 mph N/A Rain Light Rain
9:35 PM 35.6 °F 24.8 °F 33.8 °F 93% 29.88 in 7.0 mi ENE 19.6 mph - N/A Rain Light Rain
9:55 PM 35.6 °F 23.7 °F 33.8 °F 93% 29.85 in 5.0 mi ENE 24.2 mph 29.9 mph N/A Rain Light Rain
10:15 PM 35.6 °F 25.5 °F 33.8 °F 93% 29.88 in 7.0 mi ENE 17.3 mph 24.2 mph N/A Rain Light Rain
10:35 PM 35.6 °F 26.2 °F 33.8 °F 93% 29.88 in 10.0 mi NE 15.0 mph 23.0 mph 0.01 in Rain Light Rain
10:55 PM 35.6 °F 25.5 °F 33.8 °F 93% 29.87 in 5.0 mi ENE 17.3 mph 23.0 mph 0.03 in Rain Rain
11:15 PM 35.6 °F 24.5 °F 33.8 °F 93% 29.86 in 5.0 mi ENE 20.7 mph 25.3 mph 0.01 in Rain Light Rain
11:35 PM 35.6 °F 25.2 °F 33.8 °F 93% 29.84 in 5.0 mi ENE 18.4 mph 27.6 mph 0.02 in Rain Light Rain
11:55 PM 35.6 °F 24.0 °F 33.8 °F 93% 29.81 in 7.0 mi ENE 23.0 mph 28.8 mph 0.02 in Rain Light Rain